Thunderstorms From: 25-05-2018 23:09 Until: 26-05-2018 15:00 warning for: Thunderstorms Level: Yellow info button

Although rather usual in this region, locally or potentially dangerous phenomena are expected. (such as local winds, summer thunderstorms, rising streams or high waves) Be aware and pay attention to the latest weather updates, especially if you carry out activities exposed to weather or close to a stream or shoreline. 


Meteo18 Weather Cam more information Meteo18 Weather Cam


warning for Thunderstorms more information blitzortung!


Rain radar more information rain snow radar


Visit our other weather sites:

Template documentation
and downloads

And another site



Weather Underground History page Text

Daily Summary for January 29, 2018 Units:  Metric    English   Both
« Previous Day
Next Day »
Daily Weekly Monthly Yearly Custom
  High: Low: Average:
Temperature: -17.8 °C -13.8 °C -13.4 °C
Dew Point: -17.8 °C -14 °C -13.7 °C
Humidity: Humidity % 91 % 97 %
Wind Speed: 0 km/h 0 km/h 5.8 km/h
Wind Gust: 0 km/h - -
Wind:- - WSW
Pressure: 0 hPa 34990.9 hPa -
Precipitation: 38.1 mm    
Historical Graphs
 
 
Tabular Data for January 29, 2018
Time Temperature Dew Point Pressure Wind Wind Speed Wind Gust Humidity Rainfall Rate (Hourly)
-17.8 °C -17.8 °C 0 hPa Calm     Humidity % 0 mm
00:02 -13.8 °C -13.9 °C 35163.6 hPa SW 5.1 km/h 12.9 km/h 98 % 0 mm
00:08 -13.8 °C -13.9 °C 35163.6 hPa SSW 7.6 km/h 12.9 km/h 98 % 0 mm
00:14 -13.8 °C -13.9 °C 35163.6 hPa SSW 10.3 km/h 12.9 km/h 98 % 0 mm
00:20 -13.8 °C -13.9 °C 35163.6 hPa SSW 5.1 km/h 10.3 km/h 98 % 0 mm
00:26 -13.8 °C -13.9 °C 35163.6 hPa SSW 5.1 km/h 10.3 km/h 98 % 0 mm
00:32 -13.8 °C -13.9 °C 35163.6 hPa SW 7.6 km/h 12.9 km/h 98 % 0 mm
00:38 -13.8 °C -13.9 °C 35163.6 hPa SSW 7.6 km/h 12.9 km/h 98 % 0 mm
00:44 -13.8 °C -13.9 °C 35163.6 hPa SSW 7.6 km/h 10.3 km/h 98 % 0 mm
00:50 -13.8 °C -13.9 °C 35150.1 hPa SSW 5.1 km/h 7.7 km/h 98 % 0 mm
00:56 -13.8 °C -13.9 °C 35150.1 hPa SW 5.1 km/h 5.1 km/h 98 % 0 mm
01:02 -13.8 °C -13.9 °C 35150.1 hPa SW 2.3 km/h 5.1 km/h 98 % 0 mm
01:08 -13.8 °C -13.9 °C 35150.1 hPa SW 5.1 km/h 10.3 km/h 98 % 0 mm
01:14 -13.8 °C -13.9 °C 35150.1 hPa West 2.3 km/h 7.7 km/h 98 % 0 mm
01:20 -13.8 °C -13.9 °C 35150.1 hPa West 5.1 km/h 10.3 km/h 98 % 0 mm
01:26 -13.8 °C -13.9 °C 35150.1 hPa SW 5.1 km/h 12.9 km/h 98 % 0 mm
01:32 -13.8 °C -13.9 °C 35150.1 hPa SW 2.3 km/h 10.3 km/h 98 % 0 mm
01:38 -13.8 °C -13.9 °C 35150.1 hPa SW 7.6 km/h 12.9 km/h 98 % 7.62 mm
01:44 -13.8 °C -13.9 °C 35150.1 hPa WSW 2.3 km/h 10.3 km/h 98 % 7.62 mm
01:50 -13.8 °C -13.9 °C 35139.9 hPa SW 10.3 km/h 10.3 km/h 98 % 7.62 mm
01:56 -13.8 °C -13.9 °C 35139.9 hPa SW 2.3 km/h 5.1 km/h 98 % 7.62 mm
02:02 -13.8 °C -13.9 °C 35139.9 hPa SW 5.1 km/h 7.7 km/h 98 % 7.62 mm
02:08 -13.8 °C -13.9 °C 35139.9 hPa WSW 7.6 km/h 12.9 km/h 98 % 7.62 mm
02:14 -13.8 °C -13.9 °C 35139.9 hPa WSW 7.6 km/h 12.9 km/h 98 % 7.62 mm
02:20 -13.8 °C -13.9 °C 35139.9 hPa WSW 5.1 km/h 7.7 km/h 98 % 7.62 mm
02:26 -13.8 °C -13.9 °C 35139.9 hPa Calm   12.9 km/h 98 % 7.62 mm
02:32 -13.8 °C -13.9 °C 35139.9 hPa West 2.3 km/h 18.2 km/h 98 % 7.62 mm
02:38 -13.8 °C -13.9 °C 35139.9 hPa SW 10.3 km/h 12.9 km/h 98 % 0 mm
02:44 -13.8 °C -13.9 °C 35139.9 hPa SW 2.3 km/h 7.7 km/h 98 % 0 mm
02:50 -13.8 °C -13.9 °C 35139.9 hPa WSW 7.6 km/h 7.7 km/h 98 % 0 mm
02:56 -13.8 °C -13.9 °C 35139.9 hPa WSW 7.6 km/h 7.7 km/h 98 % 0 mm
03:02 -13.8 °C -13.9 °C 35139.9 hPa SW 12.7 km/h 12.9 km/h 98 % 0 mm
03:08 -13.8 °C -13.9 °C 35129.8 hPa SW 5.1 km/h 7.7 km/h 98 % 0 mm
03:14 -13.8 °C -13.9 °C 35129.8 hPa Calm   7.7 km/h 98 % 0 mm
03:20 -13.8 °C -13.9 °C 35129.8 hPa South 2.3 km/h 10.3 km/h 98 % 0 mm
03:26 -13.8 °C -13.9 °C 35116.2 hPa WSW 2.3 km/h 12.9 km/h 98 % 0 mm
03:32 -13.8 °C -13.9 °C 35116.2 hPa SW 5.1 km/h 15.6 km/h 98 % 0 mm
03:38 -13.8 °C -13.9 °C 35116.2 hPa SW 2.3 km/h 5.1 km/h 98 % 0 mm
03:44 -13.8 °C -13.9 °C 35116.2 hPa WSW 5.1 km/h 10.3 km/h 98 % 0 mm
03:50 -13.8 °C -13.9 °C 35116.2 hPa WSW 7.6 km/h 7.7 km/h 98 % 0 mm
03:56 -13.8 °C -13.9 °C 35116.2 hPa SSW 5.1 km/h 12.9 km/h 98 % 0 mm
04:02 -13.8 °C -13.9 °C 35116.2 hPa SSW 7.6 km/h 12.9 km/h 98 % 0 mm
04:08 -13.8 °C -13.9 °C 35106 hPa SW 5.1 km/h 10.3 km/h 98 % 0 mm
04:14 -13.8 °C -13.9 °C 35106 hPa WSW 2.3 km/h 7.7 km/h 98 % 0 mm
04:20 -13.8 °C -13.9 °C 35106 hPa WSW 5.1 km/h 12.9 km/h 98 % 0 mm
04:26 -13.8 °C -13.9 °C 35106 hPa WSW 2.3 km/h 7.7 km/h 98 % 0 mm
04:32 -13.8 °C -13.9 °C 35106 hPa Calm   7.7 km/h 98 % 0 mm
04:38 -13.8 °C -13.9 °C 35106 hPa WSW 2.3 km/h 10.3 km/h 98 % 0 mm
04:44 -13.8 °C -13.9 °C 35106 hPa WSW 10.3 km/h 10.3 km/h 98 % 0 mm
04:50 -13.8 °C -13.9 °C 35106 hPa WSW 2.3 km/h 10.3 km/h 98 % 0 mm
04:56 -13.8 °C -13.9 °C 35106 hPa Calm   5.1 km/h 98 % 0 mm
05:02 -13.8 °C -13.9 °C 35106 hPa SW 2.3 km/h 10.3 km/h 98 % 0 mm
05:08 -13.8 °C -13.9 °C 35106 hPa WSW 7.6 km/h 7.7 km/h 98 % 0 mm
05:14 -13.8 °C -13.9 °C 35106 hPa West 5.1 km/h 12.9 km/h 98 % 0 mm
05:20 -13.8 °C -13.9 °C 35106 hPa WSW 5.1 km/h 15.6 km/h 98 % 0 mm
05:26 -13.8 °C -13.9 °C 35106 hPa Calm   5.1 km/h 98 % 0 mm
05:32 -13.8 °C -13.9 °C 35106 hPa WSW 7.6 km/h 7.7 km/h 98 % 0 mm
05:38 -13.8 °C -13.9 °C 35106 hPa SW 2.3 km/h 2.6 km/h 98 % 0 mm
05:44 -13.8 °C -13.9 °C 35106 hPa WSW 2.3 km/h 5.1 km/h 98 % 0 mm
05:50 -13.8 °C -13.9 °C 35106 hPa SW 2.3 km/h 5.1 km/h 98 % 0 mm
05:56 -13.8 °C -13.9 °C 35095.9 hPa SW 5.1 km/h 7.7 km/h 98 % 7.62 mm
06:02 -13.8 °C -13.9 °C 35095.9 hPa SW 5.1 km/h 7.7 km/h 98 % 7.62 mm
06:08 -13.8 °C -14 °C 35095.9 hPa SW 7.6 km/h 10.3 km/h 98 % 7.62 mm
06:14 -13.8 °C -14 °C 35095.9 hPa SW 5.1 km/h 5.1 km/h 98 % 7.62 mm
06:20 -13.8 °C -14 °C 35095.9 hPa Calm   2.6 km/h 98 % 7.62 mm
06:26 -13.8 °C -14 °C 35095.9 hPa SW 5.1 km/h 5.1 km/h 98 % 7.62 mm
06:32 -13.8 °C -14 °C 35095.9 hPa SW 2.3 km/h 5.1 km/h 98 % 7.62 mm
06:38 -13.8 °C -14 °C 35095.9 hPa SW 7.6 km/h 10.3 km/h 98 % 7.62 mm
06:44 -13.8 °C -14 °C 35095.9 hPa West 2.3 km/h 10.3 km/h 98 % 7.62 mm
06:50 -13.8 °C -14 °C 35095.9 hPa Calm   5.1 km/h 98 % 7.62 mm
06:56 -13.8 °C -14 °C 35095.9 hPa West 2.3 km/h 5.1 km/h 98 % 0 mm
07:03 -13.8 °C -14 °C 35082.3 hPa Calm   5.1 km/h 98 % 0 mm
07:09 -13.8 °C -14 °C 35082.3 hPa Calm   5.1 km/h 98 % 0 mm
07:15 -13.8 °C -14 °C 35082.3 hPa Calm   5.1 km/h 98 % 0 mm
07:21 -13.8 °C -14 °C 35082.3 hPa SSW 2.3 km/h 2.6 km/h 98 % 0 mm
07:27 -13.8 °C -14 °C 35082.3 hPa SW 2.3 km/h 5.1 km/h 98 % 0 mm
07:33 -13.8 °C -14 °C 35082.3 hPa South 2.3 km/h 5.1 km/h 98 % 0 mm
07:39 -13.8 °C -14 °C 35082.3 hPa SSW 7.6 km/h 10.3 km/h 98 % 0 mm
07:45 -13.8 °C -14 °C 35082.3 hPa SW 2.3 km/h 5.1 km/h 98 % 0 mm
07:51 -13.8 °C -14 °C 35082.3 hPa SW 7.6 km/h 7.7 km/h 98 % 0 mm
07:57 -13.8 °C -14 °C 35082.3 hPa SW 5.1 km/h 10.3 km/h 98 % 0 mm
08:03 -13.8 °C -14 °C 35082.3 hPa SSW 5.1 km/h 10.3 km/h 98 % 0 mm
08:09 -13.8 °C -14 °C 35082.3 hPa SSW 12.7 km/h 18.2 km/h 98 % 0 mm
08:15 -13.8 °C -14 °C 35082.3 hPa SW 10.3 km/h 12.9 km/h 98 % 0 mm
08:21 -13.8 °C -14 °C 35082.3 hPa SW 7.6 km/h 10.3 km/h 98 % 0 mm
08:27 -13.8 °C -14 °C 35082.3 hPa SSW 5.1 km/h 10.3 km/h 98 % 0 mm
08:33 -13.8 °C -14 °C 35082.3 hPa SW 5.1 km/h 12.9 km/h 98 % 0 mm
08:39 -13.8 °C -14 °C 35095.9 hPa SSW 5.1 km/h 10.3 km/h 98 % 0 mm
08:45 -13.8 °C -14 °C 35095.9 hPa South 5.1 km/h 10.3 km/h 98 % 0 mm
08:51 -13.8 °C -14 °C 35095.9 hPa SSW 5.1 km/h 12.9 km/h 98 % 0 mm
08:57 -13.8 °C -14 °C 35095.9 hPa SSW 7.6 km/h 12.9 km/h 98 % 0 mm
09:03 -13.8 °C -14 °C 35082.3 hPa SW 10.3 km/h 12.9 km/h 98 % 0 mm
09:09 -13.8 °C -13.9 °C 35082.3 hPa SW 10.3 km/h 15.6 km/h 98 % 0 mm
09:15 -13.8 °C -13.9 °C 35082.3 hPa SW 7.6 km/h 15.6 km/h 98 % 0 mm
09:21 -13.8 °C -13.9 °C 35082.3 hPa SW 10.3 km/h 18.2 km/h 98 % 0 mm
09:27 -13.8 °C -13.9 °C 35082.3 hPa SW 10.3 km/h 18.2 km/h 98 % 0 mm
09:33 -13.8 °C -13.9 °C 35082.3 hPa SW 15.6 km/h 18.2 km/h 98 % 0 mm
09:39 -13.8 °C -13.9 °C 35082.3 hPa SSW 12.7 km/h 18.2 km/h 98 % 0 mm
09:45 -13.8 °C -13.9 °C 35082.3 hPa SW 12.7 km/h 18.2 km/h 98 % 0 mm
09:51 -13.7 °C -13.9 °C 35082.3 hPa SW 10.3 km/h 18.2 km/h 98 % 0 mm
09:57 -13.7 °C -13.9 °C 35082.3 hPa SW 10.3 km/h 18.2 km/h 98 % 0 mm
10:03 -13.7 °C -13.9 °C 35082.3 hPa SSW 7.6 km/h 15.6 km/h 98 % 0 mm
10:11 -13.7 °C -13.9 °C 35095.9 hPa SW 7.6 km/h 15.6 km/h 98 % 0 mm
10:17 -13.7 °C -13.9 °C 35095.9 hPa SW 12.7 km/h 15.6 km/h 98 % 0 mm
10:23 -13.7 °C -13.8 °C 35082.3 hPa SW 10.3 km/h 10.3 km/h 98 % 0 mm
10:29 -13.7 °C -13.8 °C 35095.9 hPa WSW 12.7 km/h 12.9 km/h 98 % 0 mm
10:35 -13.7 °C -13.8 °C 35095.9 hPa WSW 2.3 km/h 5.1 km/h 98 % 0 mm
10:41 -13.7 °C -13.8 °C 35082.3 hPa SW 15.6 km/h 15.6 km/h 98 % 0 mm
10:47 -13.6 °C -13.8 °C 35095.9 hPa WSW 10.3 km/h 12.9 km/h 98 % 0 mm
10:53 -13.6 °C -13.8 °C 35082.3 hPa West 15.6 km/h 15.6 km/h 98 % 0 mm
10:59 -13.6 °C -13.8 °C 35082.3 hPa Calm   7.7 km/h 98 % 0 mm
11:05 -13.6 °C -13.7 °C 35082.3 hPa WSW 2.3 km/h 12.9 km/h 98 % 0 mm
11:11 -13.6 °C -13.7 °C 35082.3 hPa SSW 7.6 km/h 15.6 km/h 98 % 0 mm
11:17 -13.6 °C -13.7 °C 35082.3 hPa SW 7.6 km/h 15.6 km/h 98 % 0 mm
11:23 -13.5 °C -13.7 °C 35082.3 hPa SW 17.9 km/h 20.8 km/h 98 % 0 mm
11:29 -13.5 °C -13.7 °C 35082.3 hPa SW 23.3 km/h 23.3 km/h 98 % 0 mm
11:35 -13.5 °C -13.7 °C 35082.3 hPa SW 12.7 km/h 15.6 km/h 98 % 0 mm
11:41 -13.4 °C -13.6 °C 35082.3 hPa SW 17.9 km/h 18.2 km/h 98 % 0 mm
11:47 -13.4 °C -13.6 °C 35072.2 hPa SSW 5.1 km/h 15.6 km/h 98 % 0 mm
11:53 -13.4 °C -13.6 °C 35072.2 hPa SW 10.3 km/h 10.3 km/h 98 % 0 mm
11:59 -13.4 °C -13.6 °C 35072.2 hPa SW 10.3 km/h 20.8 km/h 98 % 0 mm
12:05 -13.3 °C -13.5 °C 35072.2 hPa SSW 15.6 km/h 20.8 km/h 98 % 0 mm
12:11 -13.3 °C -13.5 °C 35072.2 hPa West 7.6 km/h 18.2 km/h 98 % 0 mm
12:17 -13.4 °C -13.6 °C 35058.6 hPa SW 12.7 km/h 20.8 km/h 98 % 0 mm
12:23 -13.4 °C -13.6 °C 35058.6 hPa WNW 12.7 km/h 23.3 km/h 98 % 0 mm
12:29 -13.3 °C -13.5 °C 35058.6 hPa WSW 7.6 km/h 18.2 km/h 98 % 0 mm
12:35 -13.3 °C -13.4 °C 35058.6 hPa Calm   12.9 km/h 98 % 0 mm
12:41 -13.2 °C -13.4 °C 35058.6 hPa Calm   12.9 km/h 98 % 0 mm
12:47 -13.2 °C -13.4 °C 35058.6 hPa West 15.6 km/h 18.2 km/h 98 % 0 mm
12:53 -13.2 °C -13.3 °C 35048.5 hPa WSW 5.1 km/h 10.3 km/h 98 % 0 mm
12:59 -13.2 °C -13.4 °C 35048.5 hPa WSW 10.3 km/h 12.9 km/h 98 % 0 mm
13:06 -13.2 °C -13.3 °C 35048.5 hPa SW 2.3 km/h 7.7 km/h 98 % 0 mm
13:12 -13.1 °C -13.3 °C 35048.5 hPa WSW 7.6 km/h 10.3 km/h 98 % 0 mm
13:18 -13.2 °C -13.3 °C 35038.3 hPa Calm   12.9 km/h 98 % 0 mm
13:24 -13.2 °C -13.3 °C 35038.3 hPa WSW 17.9 km/h 18.2 km/h 98 % 0 mm
13:30 -13.1 °C -13.3 °C 35038.3 hPa West 10.3 km/h 23.3 km/h 98 % 0 mm
13:36 -13.1 °C -13.3 °C 35038.3 hPa West 10.3 km/h 20.8 km/h 98 % 0 mm
13:42 -13.1 °C -13.2 °C 35024.8 hPa WSW 12.7 km/h 15.6 km/h 98 % 0 mm
13:48 -13 °C -13.2 °C 35024.8 hPa West 5.1 km/h 7.7 km/h 98 % 0 mm
13:54 -13 °C -13.2 °C 35024.8 hPa WSW 15.6 km/h 20.8 km/h 97 % 0 mm
14:00 -13 °C -13.2 °C 35024.8 hPa SW 7.6 km/h 12.9 km/h 97 % 0 mm
14:06 -13 °C -13.2 °C 35024.8 hPa West 12.7 km/h 20.8 km/h 97 % 0 mm
14:12 -13 °C -13.3 °C 35024.8 hPa SW 15.6 km/h 18.2 km/h 96 % 0 mm
14:18 -13 °C -13.3 °C 35014.6 hPa West 10.3 km/h 20.8 km/h 96 % 0 mm
14:24 -12.9 °C -13.4 °C 35014.6 hPa West 10.3 km/h 20.8 km/h 95 % 0 mm
14:30 -12.9 °C -13.3 °C 35014.6 hPa WNW 5.1 km/h 12.9 km/h 95 % 0 mm
14:36 -12.9 °C -13.4 °C 35014.6 hPa West 2.3 km/h 10.3 km/h 94 % 0 mm
14:42 -12.8 °C -13.3 °C 35014.6 hPa WNW 5.1 km/h 10.3 km/h 94 % 0 mm
14:48 -12.8 °C -13.3 °C 35001.1 hPa West 10.3 km/h 15.6 km/h 94 % 0 mm
14:54 -12.8 °C -13.4 °C 35001.1 hPa West 7.6 km/h 15.6 km/h 93 % 0 mm
15:00 -12.8 °C -13.4 °C 35001.1 hPa WNW 7.6 km/h 15.6 km/h 93 % 0 mm
15:06 -12.7 °C -13.4 °C 35001.1 hPa West 17.9 km/h 20.8 km/h 92 % 0 mm
15:12 -12.7 °C -13.5 °C 35001.1 hPa West 17.9 km/h 25.9 km/h 91 % 0 mm
15:18 -12.7 °C -13.4 °C 35001.1 hPa West 10.3 km/h 25.9 km/h 92 % 0 mm
15:24 -12.7 °C -13.4 °C 35001.1 hPa WNW 7.6 km/h 20.8 km/h 92 % 0 mm
15:30 -12.7 °C -13.4 °C 35001.1 hPa West 20.9 km/h 20.9 km/h 91 % 0 mm
15:36 -12.7 °C -13.4 °C 35001.1 hPa West 23 km/h 23.3 km/h 91 % 0 mm
15:42 -12.7 °C -13.4 °C 35001.1 hPa West 10.3 km/h 25.9 km/h 91 % 0 mm
15:48 -12.7 °C -13.3 °C 35001.1 hPa WSW 7.6 km/h 18.2 km/h 92 % 0 mm
15:54 -12.7 °C -13.3 °C 35001.1 hPa West 10.3 km/h 15.6 km/h 92 % 0 mm
16:00 -12.7 °C -13.4 °C 35001.1 hPa WNW 17.9 km/h 23.3 km/h 92 % 0 mm
16:06 -12.7 °C -13.4 °C 35001.1 hPa WSW 23 km/h 25.9 km/h 92 % 0 mm
16:12 -12.7 °C -13.4 °C 35001.1 hPa WSW 7.6 km/h 20.8 km/h 92 % 0 mm
16:18 -12.7 °C -13.4 °C 35001.1 hPa WSW 12.7 km/h 12.9 km/h 92 % 0 mm
16:24 -12.7 °C -13.3 °C 35001.1 hPa WSW 10.3 km/h 15.6 km/h 93 % 0 mm
16:30 -12.8 °C -13.4 °C 35001.1 hPa West 10.3 km/h 15.6 km/h 93 % 0 mm
16:36 -12.8 °C -13.4 °C 35001.1 hPa West 12.7 km/h 18.2 km/h 93 % 0 mm
16:42 -12.8 °C -13.3 °C 35001.1 hPa West 15.6 km/h 15.6 km/h 94 % 0 mm
16:48 -12.9 °C -13.4 °C 35001.1 hPa WSW 5.1 km/h 15.6 km/h 94 % 0 mm
16:54 -12.9 °C -13.4 °C 35001.1 hPa West 15.6 km/h 15.6 km/h 95 % 0 mm
17:00 -12.9 °C -13.4 °C 35001.1 hPa West 5.1 km/h 12.9 km/h 95 % 0 mm
17:06 -12.9 °C -13.4 °C 35001.1 hPa West 5.1 km/h 7.7 km/h 95 % 0 mm
17:12 -12.9 °C -13.4 °C 35001.1 hPa West 2.3 km/h 12.9 km/h 95 % 0 mm
17:18 -12.9 °C -13.4 °C 34990.9 hPa WSW 7.6 km/h 12.9 km/h 95 % 0 mm
17:24 -12.9 °C -13.3 °C 34990.9 hPa WSW 2.3 km/h 10.3 km/h 96 % 0 mm
17:30 -12.9 °C -13.3 °C 35001.1 hPa Calm   7.7 km/h 96 % 0 mm
17:36 -12.9 °C -13.3 °C 35001.1 hPa WSW 7.6 km/h 10.3 km/h 96 % 0 mm
17:42 -12.9 °C -13.3 °C 35001.1 hPa SW 5.1 km/h 10.3 km/h 96 % 0 mm
17:48 -13 °C -13.3 °C 34990.9 hPa WSW 5.1 km/h 10.3 km/h 96 % 0 mm
17:54 -13 °C -13.3 °C 34990.9 hPa SW 5.1 km/h 7.7 km/h 96 % 0 mm
18:00 -13 °C -13.3 °C 35001.1 hPa WSW 2.3 km/h 5.1 km/h 96 % 0 mm
18:06 -13 °C -13.3 °C 35001.1 hPa West 15.6 km/h 20.8 km/h 96 % 0 mm
18:12 -13 °C -13.3 °C 35001.1 hPa West 5.1 km/h 10.3 km/h 96 % 0 mm
18:18 -13 °C -13.3 °C 35001.1 hPa WSW 2.3 km/h 5.1 km/h 96 % 7.62 mm
18:24 -13 °C -13.3 °C 35001.1 hPa SW 2.3 km/h 7.7 km/h 96 % 7.62 mm
18:30 -13 °C -13.3 °C 35001.1 hPa SW 7.6 km/h 7.7 km/h 96 % 7.62 mm
18:36 -13 °C -13.2 °C 35001.1 hPa SW 2.3 km/h 5.1 km/h 97 % 7.62 mm
18:42 -13 °C -13.2 °C 35001.1 hPa WSW 2.3 km/h 7.7 km/h 97 % 7.62 mm
18:48 -13 °C -13.2 °C 35001.1 hPa West 5.1 km/h 5.1 km/h 97 % 7.62 mm
18:54 -13 °C -13.2 °C 35001.1 hPa Calm   5.1 km/h 97 % 7.62 mm
19:00 -13.1 °C -13.3 °C 35001.1 hPa Calm     97 % 7.62 mm
19:06 -13.1 °C -13.3 °C 35001.1 hPa Calm     97 % 12.7 mm
19:12 -13.1 °C -13.3 °C 35001.1 hPa Calm     97 % 12.7 mm
19:18 -13.1 °C -13.3 °C 35001.1 hPa Calm     97 % 7.62 mm
19:24 -13.1 °C -13.3 °C 35001.1 hPa Calm     97 % 7.62 mm
19:30 -13.1 °C -13.3 °C 35001.1 hPa Calm     97 % 7.62 mm
19:37 -13.1 °C -13.3 °C 35001.1 hPa Calm     97 % 7.62 mm
19:43 -13.1 °C -13.3 °C 35001.1 hPa Calm     97 % 7.62 mm
19:49 -13.1 °C -13.3 °C 35001.1 hPa Calm     97 % 7.62 mm
19:55 -13.1 °C -13.3 °C 35001.1 hPa Calm     97 % 7.62 mm
20:01 -13.1 °C -13.3 °C 35001.1 hPa Calm     97 % 7.62 mm
20:07 -13.1 °C -13.3 °C 35001.1 hPa Calm     97 % 0 mm
20:13 -13.1 °C -13.3 °C 35001.1 hPa Calm     97 % 7.62 mm
20:19 -13.1 °C -13.3 °C 35001.1 hPa Calm     97 % 7.62 mm
20:25 -13.1 °C -13.3 °C 35014.6 hPa Calm     97 % 7.62 mm
20:31 -13.2 °C -13.4 °C 35014.6 hPa Calm     97 % 7.62 mm
20:37 -13.2 °C -13.4 °C 35014.6 hPa Calm     97 % 7.62 mm
20:43 -13.2 °C -13.4 °C 35014.6 hPa North 2.3 km/h 5.1 km/h 97 % 12.7 mm
20:49 -13.2 °C -13.4 °C 35014.6 hPa WNW 2.3 km/h 7.7 km/h 97 % 12.7 mm
20:55 -13.2 °C -13.4 °C 35014.6 hPa WNW 2.3 km/h 5.1 km/h 97 % 12.7 mm
21:01 -13.2 °C -13.4 °C 35014.6 hPa West 2.3 km/h 2.6 km/h 97 % 12.7 mm
21:07 -13.2 °C -13.4 °C 35014.6 hPa Calm   2.6 km/h 97 % 12.7 mm
21:13 -13.2 °C -13.4 °C 35014.6 hPa Calm   2.6 km/h 97 % 12.7 mm
21:19 -13.2 °C -13.4 °C 35014.6 hPa Calm     97 % 12.7 mm
21:26 -13.2 °C -13.4 °C 35014.6 hPa West 2.3 km/h 5.1 km/h 97 % 12.7 mm
21:32 -13.2 °C -13.4 °C 35014.6 hPa Calm     97 % 12.7 mm
21:38 -13.2 °C -13.4 °C 35014.6 hPa Calm     97 % 12.7 mm
21:44 -13.2 °C -13.4 °C 35014.6 hPa NW 5.1 km/h 7.7 km/h 97 % 7.62 mm
21:50 -13.2 °C -13.4 °C 35014.6 hPa WNW 2.3 km/h 10.3 km/h 97 % 7.62 mm
21:56 -13.2 °C -13.4 °C 35014.6 hPa Calm   5.1 km/h 97 % 7.62 mm
22:02 -13.2 °C -13.4 °C 35014.6 hPa NW 5.1 km/h 5.1 km/h 97 % 0 mm
22:08 -13.2 °C -13.4 °C 35014.6 hPa Calm   2.6 km/h 97 % 0 mm
22:14 -13.2 °C -13.6 °C 35014.6 hPa Calm   2.6 km/h 96 % 0 mm
22:20 -13.2 °C -13.6 °C 35014.6 hPa Calm     96 % 0 mm
22:26 -13.2 °C -13.6 °C 35014.6 hPa Calm     96 % 0 mm
22:32 -13.2 °C -13.6 °C 35014.6 hPa Calm     96 % 0 mm
22:38 -13.2 °C -13.6 °C 35014.6 hPa Calm     96 % 0 mm
22:44 -13.2 °C -13.6 °C 35014.6 hPa Calm     96 % 0 mm
22:50 -13.2 °C -13.6 °C 35001.1 hPa Calm   2.6 km/h 96 % 0 mm
22:56 -13.2 °C -13.5 °C 35014.6 hPa West 2.3 km/h 5.1 km/h 96 % 0 mm
23:02 -13.1 °C -13.4 °C 35014.6 hPa West 2.3 km/h 2.6 km/h 96 % 0 mm
23:08 -13.1 °C -13.6 °C 35001.1 hPa Calm   2.6 km/h 95 % 0 mm
23:15 -13.2 °C -13.6 °C 35001.1 hPa Calm     95 % 0 mm
23:21 -13.2 °C -13.7 °C 35001.1 hPa SW 2.3 km/h 2.6 km/h 95 % 0 mm
23:27 -13.2 °C -13.7 °C 35001.1 hPa SSW 2.3 km/h 2.6 km/h 95 % 0 mm
23:33 -13.3 °C -13.7 °C 35001.1 hPa Calm   2.6 km/h 95 % 0 mm
23:39 -13.4 °C -13.7 °C 35001.1 hPa Calm   2.6 km/h 96 % 0 mm
23:45 -13.4 °C -13.7 °C 35001.1 hPa Calm     96 % 0 mm
23:51 -13.4 °C -13.7 °C 35001.1 hPa Calm     96 % 0 mm
23:57 -13.4 °C -13.7 °C 35001.1 hPa Calm     96 % 0 mm
Meteo18
Compliments of Weather Underground - 4 mb

Script developed by  Jim McMurry - jmcmurry@mwt.net Adapted for the template by  Wim van der Kuil - Leuven-Template.eu

You find our weather info also at:

European Weather Network

Weather Underground

Equipment we use:

Weather-station
Davis Vue

Weather-program
Meteobridge

Weather-server
Raspberry PI 2 B+

Provider
1 and 1

Davis Vue

Meteobridge

Raspberry PI 2 B+

1 and 1